Location: Ferchesar
(52.6477°N, 12.4298°E)
Time: 21:58:25
(UTC+02:00)

Transit 4A - Pass Details

Date: 07 March 2021
Orbit: 868 x 976 km, 66.8° (Epoch: 10 April)

Event Time Altitude Azimuth Distance (km) Brightness Sun altitude
Rises 18:12:49 0° 319° (NW) 3,588 11.5 -2.7°
Reaches altitude 10° 18:15:24 10° 317° (NW) 2,625 10.9 -3.1°
Maximum altitude 18:21:23 62° 238° (WSW) 1,013 8.5 -4.0°
Drops below altitude 10° 18:27:11 10° 159° (SSE) 2,541 10.0 -4.9°
Sets 18:29:39 0° 156° (SSE) 3,466 10.7 -5.2°
